Flag for U.S.A. Weather past 2 weeks in Springfield, Missouri, U.S.A.

Now
84 °F

Sunny.


Feels Like: 88 °F
Forecast: 70 / 86 °F
Wind: 13 mph from South

Location: Springfield Regional Airport

Current Time: Aug 31, 2015 at 12:48:26 PM

Latest Report: Aug 31, 2015 at 11:52 AM


Visibility: 10 mi

Pressure: 30.03 "Hg

Humidity: 61%

Dew point: 69 °F

Location of SpringfieldLocation

Historic Weather in Springfield — Graph

°F

Springfield temperature yesterday

Maximum temperature yesterday: 85 °F (at 3:52 PM)
Minimum temperature yesterday: 68 °F (at 5:52 AM)
Average temperature yesterday: 76 °F

Past Weeks' High & Low Weather Summary

 TemperatureHumidityPressure
High87 °F (Aug 16, 4:52 PM)94% (Aug 19, 7:52 AM)30.18 "Hg (Aug 19, 7:52 AM)
Low53 °F (Aug 20, 6:52 AM)36% (Aug 24, 2:52 PM)29.67 "Hg (Aug 18, 6:52 PM)
Average71 °F73%30.00 "Hg
* Reported Aug 16 11:52 AM — Aug 31 11:52 AM, Springfield, Weather by CustomWeather, © 2015

Note: Actual official high and low records may vary slightly from our data, if they occured in-between our weather recording intervals... More about our weather records

Advertising

Springfield weather history for previous 24 hours

 ConditionsComfort  
Time TempWeatherWind HumidityBarometerVisibility
11:52 AM
Mon, Aug 31
84 °FSunny.13 mph61%30.03 "Hg10 mi
10:52 AM82 °FSunny.13 mph65%30.03 "Hg10 mi
9:52 AM79 °FSunny.14 mph69%30.03 "Hg10 mi
8:52 AM75 °FSunny.10 mph79%30.02 "Hg10 mi
7:52 AM72 °FPassing clouds.9 mph84%30.01 "Hg9 mi
6:52 AM71 °FPassing clouds.10 mph87%30.00 "Hg8 mi
5:52 AM71 °FClear.10 mph87%29.98 "Hg10 mi
4:52 AM71 °FClear.9 mph87%29.97 "Hg9 mi
3:52 AM72 °FClear.9 mph84%29.96 "Hg10 mi
2:52 AM73 °FClear.10 mph84%29.96 "Hg10 mi
1:52 AM74 °FClear.8 mph82%29.96 "Hg10 mi
12:52 AM75 °FClear.8 mph82%29.95 "Hg10 mi
11:52 PM
Sun, Aug 30
75 °FClear.8 mph85%29.95 "Hg10 mi
10:52 PM75 °FClear.7 mph85%29.96 "Hg9 mi
9:52 PM76 °FClear.7 mph82%29.97 "Hg10 mi
8:52 PM75 °FClear.6 mph79%29.97 "Hg10 mi
7:52 PM78 °FSunny.6 mph71%29.95 "Hg10 mi
6:52 PM82 °FSunny.9 mph65%29.94 "Hg10 mi
5:52 PM84 °FPassing clouds.5 mph61%29.95 "Hg10 mi
4:52 PM85 °FPassing clouds.9 mph57%29.95 "Hg10 mi
3:52 PM85 °FSunny.10 mph55%29.97 "Hg10 mi
2:52 PM84 °FSunny.9 mph61%29.98 "Hg10 mi
1:52 PM83 °FSunny.10 mph63%30.00 "Hg10 mi
12:52 PM82 °FSunny.12 mph65%30.01 "Hg10 mi
Weather by CustomWeather, © 2015

See weather overviewHow to use our weather pages